Date String (YYYY-MM-DD hh:mm:ss) UTC,Instrument flags,Ambient pressure (hPa),Sample flow (lpm),Bypass flow (lpm),Sample temperature (°C),Ambient temperature (°C),ASC tube jacket temperature (°C),LED temperature (°C),Box temperature (°C),Sample RH (%),Span deviation,Mass concentration (μg/m³),Mass concentration (μg/m³),Mass concentration (μg/m³)
DateTimeUTC,F1_M11,P_M11,Q1_M11,Q2_M11,T1_M11,T2_M11,T3_M11,T4_M11,T5_M11,U1_M11,ZSPAN_M11,X0_M11,X2_M11,X1_M11
2022-09-01 09:00:00,,0829.7,5.01,0.00,30.4,29.2,00.0,39.1,32.2,18.3,0000.0,0010.45,0005.40,0004.48
2022-09-01 09:01:00,,0829.9,5.00,0.00,30.4,29.2,00.0,39.1,32.2,18.3,0000.0,0010.46,0005.40,0004.47
2022-09-01 09:02:00,,0829.5,5.00,0.00,30.4,29.2,00.0,39.1,32.2,18.3,0000.0,0010.38,0005.40,0004.46
2022-09-01 09:03:00,,0829.6,4.99,0.00,30.4,29.2,00.0,39.1,32.2,18.3,0000.0,0010.15,0005.44,0004.47
2022-09-01 09:04:00,,0829.6,5.01,0.00,30.4,29.2,00.0,39.2,32.2,18.2,0000.0,0010.10,0005.46,0004.46
2022-09-01 09:05:00,,0829.6,5.01,0.00,30.4,29.3,00.0,39.2,32.2,18.2,0000.0,0010.38,0005.50,0004.46
2022-09-01 09:06:00,,0829.6,5.01,0.00,30.4,29.3,00.0,39.2,32.2,18.2,0000.0,0010.61,0005.50,0004.46
2022-09-01 09:07:00,,0829.6,4.99,0.00,30.4,29.3,00.0,39.2,32.2,18.2,0000.0,0010.78,0005.49,0004.46
2022-09-01 09:08:00,,0829.5,5.00,0.00,30.5,29.3,00.0,39.2,32.3,18.1,0000.0,0011.54,0005.49,0004.46
2022-09-01 09:09:00,,0829.6,5.00,0.00,30.5,29.3,00.0,39.2,32.3,18.1,0000.0,0012.61,0005.44,0004.45
2022-09-01 09:10:00,,0829.6,5.00,0.00,30.5,29.3,00.0,39.2,32.3,18.1,0000.0,0012.76,0005.38,0004.43
2022-09-01 09:11:00,,0829.5,5.00,0.00,30.5,29.3,00.0,39.3,32.3,18.1,0000.0,0013.08,0005.34,0004.41
2022-09-01 09:12:00,,0829.6,5.00,0.00,30.5,29.3,00.0,39.3,32.3,18.1,0000.0,0013.16,0005.29,0004.39
2022-09-01 09:13:00,,0829.6,5.01,0.00,30.5,29.3,00.0,39.3,32.3,18.1,0000.0,0013.75,0005.28,0004.39
2022-09-01 09:14:00,,0829.6,5.00,0.00,30.5,28.7,00.0,39.3,32.3,18.1,0000.0,0013.51,0005.22,0004.36
2022-09-01 09:15:00,,0829.6,5.00,0.00,30.5,27.3,00.0,39.2,32.1,18.1,0000.0,0014.31,0005.19,0004.36
2022-09-01 09:16:00,,0829.5,5.01,0.00,30.4,27.0,00.0,39.2,32.1,18.1,0000.0,0015.05,0005.17,0004.35
2022-09-01 09:17:00,,0829.5,5.00,0.00,30.3,27.1,00.0,39.1,31.8,18.3,0000.0,0015.09,0005.21,0004.34
2022-09-01 09:18:00,,0829.5,4.99,0.00,30.2,27.5,00.0,39.1,31.8,18.4,0000.0,0014.83,0005.18,0004.33
2022-09-01 09:19:00,,0829.5,5.00,0.00,30.2,27.8,00.0,39.1,31.7,18.4,0000.0,0014.17,0005.14,0004.30
2022-09-01 09:20:00,,0829.5,5.01,0.00,30.2,28.0,00.0,39.0,31.8,18.4,0000.0,0013.26,0005.14,0004.29
2022-09-01 09:21:00,,0829.6,5.00,0.00,30.1,28.2,00.0,39.0,31.8,18.5,0000.0,0013.23,0005.13,0004.28
2022-09-01 09:22:00,,0829.5,5.00,0.00,30.1,28.3,00.0,39.0,31.8,18.5,0000.0,0012.87,0005.14,0004.29
2022-09-01 09:23:00,,0829.5,5.00,0.00,30.1,28.4,00.0,39.0,31.8,18.5,0000.0,0013.38,0005.17,0004.27
2022-09-01 09:24:00,,0829.5,5.00,0.00,30.1,28.5,00.0,39.0,31.9,18.5,0000.0,0013.52,0005.16,0004.26
2022-09-01 09:25:00,,0829.6,5.00,0.00,30.1,28.6,00.0,39.0,31.9,18.5,0000.0,0013.64,0005.13,0004.24
2022-09-01 09:26:00,,0829.6,5.00,0.00,30.1,28.7,00.0,39.0,31.9,18.5,0000.0,0012.66,0005.12,0004.23
2022-09-01 09:27:00,,0829.5,5.00,0.00,30.1,28.7,00.0,39.0,31.9,18.4,0000.0,0012.15,0005.13,0004.24
2022-09-01 09:28:00,,0829.5,5.01,0.00,30.1,28.8,00.0,39.0,31.9,18.3,0000.0,0012.89,0005.10,0004.23
2022-09-01 09:29:00,,0829.5,5.01,0.00,30.2,28.8,00.0,39.0,32.0,18.3,0000.0,0013.40,0005.12,0004.23
2022-09-01 09:30:00,,0829.6,5.00,0.00,30.2,28.9,00.0,39.0,32.0,18.3,0000.0,0013.52,0005.16,0004.23
2022-09-01 09:31:00,,0829.5,4.98,0.00,30.2,28.9,00.0,39.0,32.0,18.3,0000.0,0013.18,0005.17,0004.23
2022-09-01 09:32:00,,0829.5,5.01,0.00,30.2,29.0,00.0,39.0,32.0,18.2,0000.0,0012.74,0005.20,0004.24
2022-09-01 09:33:00,,0829.5,5.01,0.00,30.2,29.0,00.0,39.0,32.0,18.2,0000.0,0012.92,0005.22,0004.23
2022-09-01 09:34:00,,0829.5,5.00,0.00,30.2,29.0,00.0,39.0,32.0,18.2,0000.0,0012.64,0005.22,0004.23
2022-09-01 09:35:00,,0829.6,5.00,0.00,30.2,29.0,00.0,39.0,32.0,18.2,0000.0,0011.58,0005.21,0004.23
2022-09-01 09:36:00,,0829.5,5.00,0.00,30.2,29.1,00.0,39.0,32.1,18.1,0000.0,0011.43,0005.24,0004.23
2022-09-01 09:37:00,,0829.5,5.00,0.00,30.3,29.1,00.0,39.0,32.1,18.1,0000.0,0011.90,0005.28,0004.24
2022-09-01 09:38:00,,0829.5,4.98,0.00,30.3,29.1,00.0,39.1,32.1,18.1,0000.0,0012.39,0005.24,0004.23
2022-09-01 09:39:00,,0829.6,5.00,0.00,30.3,29.1,00.0,39.1,32.1,18.1,0000.0,0011.33,0005.24,0004.24
2022-09-01 09:40:00,,0829.5,5.00,0.00,30.3,29.1,00.0,39.1,32.1,18.0,0000.0,0010.68,0005.24,0004.23
2022-09-01 09:41:00,,0829.5,5.00,0.00,30.3,29.1,00.0,39.1,32.1,18.0,0000.0,0011.03,0005.23,0004.23
2022-09-01 09:42:00,,0829.5,5.00,0.00,30.3,29.1,00.0,39.1,32.1,18.0,0000.0,0011.08,0005.23,0004.23
2022-09-01 09:43:00,,0829.5,5.00,0.00,30.4,29.2,00.0,39.1,32.1,18.0,0000.0,0010.96,0005.18,0004.22
2022-09-01 09:44:00,,0829.5,5.00,0.00,30.4,29.2,00.0,39.1,32.2,17.9,0000.0,0011.06,0005.17,0004.22
2022-09-01 09:45:00,,0829.5,5.00,0.00,30.4,29.2,00.0,39.1,32.2,17.9,0000.0,0012.02,0005.16,0004.22
2022-09-01 09:46:00,,0829.5,5.00,0.00,30.4,29.2,00.0,39.2,32.2,17.9,0000.0,0012.13,0005.18,0004.23
2022-09-01 09:47:00,,0829.5,5.00,0.00,30.4,29.2,00.0,39.2,32.2,17.9,0000.0,0012.08,0005.21,0004.22
2022-09-01 09:48:00,,0829.5,4.99,0.00,30.4,29.2,00.0,39.2,32.2,18.0,0000.0,0011.67,0005.19,0004.22
2022-09-01 09:49:00,,0829.5,5.00,0.00,30.4,29.2,00.0,39.2,32.2,18.0,0000.0,0011.02,0005.21,0004.23
2022-09-01 09:50:00,,0829.6,5.01,0.00,30.4,29.3,00.0,39.2,32.2,17.9,0000.0,0011.06,0005.19,0004.22
2022-09-01 09:51:00,,0829.5,5.00,0.00,30.4,29.3,00.0,39.2,32.2,17.9,0000.0,0011.43,0005.19,0004.22
2022-09-01 09:52:00,,0829.6,5.01,0.00,30.5,29.3,00.0,39.2,32.3,17.9,0000.0,0011.91,0005.16,0004.22
2022-09-01 09:53:00,,0829.6,5.00,0.00,30.5,29.3,00.0,39.2,32.3,17.9,0000.0,0011.92,0005.15,0004.22
2022-09-01 09:54:00,,0829.6,4.99,0.00,30.5,29.3,00.0,39.3,32.3,17.8,0000.0,0012.52,0005.23,0004.23
2022-09-01 09:55:00,,0829.7,5.00,0.00,30.5,29.3,00.0,39.3,32.3,17.9,0000.0,0012.59,0005.21,0004.24
2022-09-01 09:56:00,,0829.6,5.01,0.00,30.5,29.3,00.0,39.3,32.3,18.2,0000.0,0011.88,0005.21,0004.24
2022-09-01 09:57:00,,0829.7,5.00,0.00,30.5,29.4,00.0,39.3,32.3,18.3,0000.0,0011.69,0005.18,0004.24
2022-09-01 09:58:00,,0829.6,5.00,0.00,30.5,29.4,00.0,39.3,32.3,18.2,0000.0,0011.66,0005.15,0004.25
2022-09-01 09:59:00,,0829.7,5.00,0.00,30.6,29.4,00.0,39.3,32.4,18.2,0000.0,0011.80,0005.14,0004.25
